"startDT [UTC]","vpos","CH4 [ppm]","stdev(CH4) [ppm]","CO2 [ppm]","stdev(CO2) [ppm]","H2O_reported [%]","stdev(H2O_reported)","CavityPressure [torr]","CavityTemp [C]","OutletValve","CH4_dry [ppm]","CO2_dry [ppm]","DasTemp [C]","EtalonTemp [C]","WarmBoxTemp [C]","MPVPosition","T_ECpre [C]","T_EC1 [C]","T_EC2 [C]","p_inlet [hPa]","p_in [hPa]","p_out [hPa]","T_inlet [C]","RH_inlet [%]","dwpt_inlet [C]","T_vent [C]","RH_vent [%]","dwpt_vent [C]","flow_vent [l min-1]","flow_inlet [l min-1]","dwpt_sample [C]","T_room [C]"
2015-09-24 00:00:00,0.0,1.93214,0.00032,390.761,0.038,0.4415,0.0041,139.998,45.000,31627.36423,1.94058,392.863,34.988,45.068,45.000,0.00,0.09,-272.74,-272.80,-7,511,-951,19.0,15.4,-7.9,19.3,15.6,-7.5,5.73,1.92,-4.1,25.9
2015-09-24 00:01:00,0.0,1.93236,0.00041,390.774,0.033,0.4430,0.0043,139.998,45.000,31627.99899,1.94092,392.884,34.981,45.068,45.000,0.00,0.09,-272.74,-272.80,-7,511,-951,19.1,15.5,-7.8,19.3,15.7,-7.4,5.73,1.89,-4.1,25.9
2015-09-24 00:02:00,0.0,1.93185,0.00032,390.721,0.033,0.4424,0.0023,140.000,45.000,31630.20277,1.94037,392.827,34.948,45.068,45.000,0.00,0.09,-272.75,-272.81,-7,511,-951,19.1,15.5,-7.8,19.3,15.7,-7.4,5.73,1.97,-4.1,25.9
2015-09-24 00:03:00,0.0,1.93233,0.00035,390.747,0.041,0.4444,0.0043,139.999,45.000,31630.33285,1.94089,392.862,34.941,45.068,45.000,0.00,0.09,-272.74,-272.80,-7,511,-951,19.1,15.5,-7.7,19.3,15.8,-7.3,5.73,2.08,-4.1,25.9
2015-09-24 00:04:00,0.0,1.93254,0.00047,390.750,0.036,0.4457,0.0019,139.999,45.000,31632.45231,1.94109,392.872,34.939,45.068,45.000,0.00,0.09,-272.74,-272.81,-7,511,-951,19.1,15.6,-7.7,19.3,15.8,-7.3,5.73,2.13,-4.1,25.9
2015-09-24 00:05:00,0.0,1.93258,0.00036,390.773,0.031,0.4462,0.0040,140.000,45.000,31634.03477,1.94122,392.897,34.942,45.069,45.000,0.00,0.09,-272.74,-272.81,-7,511,-951,19.1,15.6,-7.7,19.3,15.8,-7.3,5.73,2.06,-4.1,25.9
2015-09-24 00:06:00,0.0,1.93264,0.00047,390.801,0.050,0.4475,0.0030,140.002,45.000,31634.38287,1.94122,392.931,34.943,45.068,45.000,0.00,0.09,-272.74,-272.81,-7,511,-951,19.1,15.7,-7.6,19.3,15.9,-7.3,5.73,1.96,-4.1,25.9
2015-09-24 00:07:00,0.0,1.93292,0.00040,390.811,0.034,0.4545,0.0031,140.002,45.000,31634.11984,1.94165,392.974,34.947,45.068,45.000,0.00,0.09,-272.74,-272.80,-7,512,-951,19.1,15.9,-7.4,19.3,16.1,-7.1,5.73,1.89,-4.1,25.9
2015-09-24 00:08:00,0.0,1.93297,0.00040,390.807,0.040,0.4498,0.0041,140.001,45.000,31634.44552,1.94166,392.952,34.952,45.068,45.000,0.00,0.09,-272.75,-272.80,-6,511,-951,19.1,15.7,-7.5,19.3,16.0,-7.1,5.73,1.93,-4.1,25.9
2015-09-24 00:09:00,0.0,1.93300,0.00040,390.813,0.032,0.4499,0.0031,139.997,45.000,31633.09622,1.94170,392.955,34.951,45.068,45.000,0.00,0.09,-272.75,-272.80,-6,511,-951,19.1,15.7,-7.5,19.3,15.9,-7.2,5.73,2.04,-4.1,25.9
2015-09-24 00:10:00,0.0,1.93265,0.00037,390.801,0.040,0.4475,0.0031,140.003,45.000,31636.23729,1.94125,392.932,34.952,45.068,45.000,0.00,0.09,-272.75,-272.80,-6,511,-951,19.1,15.7,-7.6,19.3,15.9,-7.2,5.73,2.12,-4.1,25.9
2015-09-24 00:11:00,0.0,1.93305,0.00048,390.786,0.037,0.4489,0.0041,140.000,45.000,31633.11541,1.94173,392.924,34.957,45.068,45.000,0.00,0.09,-272.74,-272.80,-7,511,-951,19.1,15.7,-7.5,19.3,15.9,-7.2,5.73,2.10,-4.1,26.0
2015-09-24 00:12:00,0.0,1.93279,0.00036,390.788,0.022,0.4495,0.0027,140.001,45.000,31634.11604,1.94144,392.929,34.961,45.068,45.000,0.00,0.09,-272.75,-272.81,-7,511,-951,19.1,15.7,-7.5,19.3,15.9,-7.2,5.73,2.00,-4.2,25.9
2015-09-24 00:13:00,0.0,1.93282,0.00042,390.754,0.034,0.4460,0.0058,139.998,45.000,31630.99785,1.94141,392.879,34.988,45.068,45.000,0.00,0.09,-272.74,-272.80,-7,511,-951,19.1,15.5,-7.7,19.3,15.9,-7.2,5.73,1.90,-4.1,26.0
2015-09-24 00:14:00,0.0,1.93276,0.00046,390.724,0.030,0.4400,0.0023,140.002,45.000,31632.83520,1.94125,392.819,34.985,45.068,45.000,0.00,0.09,-272.74,-272.80,-7,511,-951,19.1,15.3,-7.9,19.3,15.6,-7.5,5.73,1.89,-4.1,26.0
2015-09-24 00:15:00,0.0,1.93268,0.00056,390.716,0.032,0.4406,0.0026,140.000,45.000,31632.72871,1.94117,392.814,34.977,45.068,45.000,0.00,0.09,-272.75,-272.80,-7,511,-951,19.1,15.3,-7.8,19.3,15.6,-7.5,5.73,2.00,-4.1,26.0
2015-09-24 00:16:00,0.0,1.93282,0.00032,390.693,0.034,0.4394,0.0026,140.000,45.000,31630.96828,1.94127,392.784,34.981,45.068,45.000,0.00,0.09,-272.75,-272.81,-7,512,-951,19.1,15.2,-7.9,19.3,15.5,-7.5,5.73,2.12,-4.1,26.0
2015-09-24 00:17:00,0.0,1.93288,0.00035,390.686,0.022,0.4385,0.0022,140.001,45.000,31632.78732,1.94134,392.773,34.999,45.068,45.000,0.00,0.09,-272.74,-272.81,-7,512,-951,19.1,15.2,-7.9,19.3,15.5,-7.5,5.73,2.12,-4.1,26.0
2015-09-24 00:18:00,0.0,1.93295,0.00036,390.697,0.026,0.4387,0.0014,140.003,45.000,31633.72979,1.94141,392.786,34.993,45.068,45.000,0.00,0.09,-272.74,-272.81,-7,512,-951,19.1,15.2,-7.9,19.3,15.5,-7.5,5.73,2.01,-4.1,26.0
2015-09-24 00:19:00,0.0,1.93308,0.00042,390.709,0.041,0.4446,0.0034,140.003,45.000,31633.33493,1.94162,392.822,34.967,45.068,45.000,0.00,0.09,-272.74,-272.81,-7,512,-951,19.2,15.5,-7.7,19.3,15.7,-7.4,5.73,1.90,-4.1,26.0
2015-09-24 00:20:00,0.0,1.93297,0.00045,390.704,0.036,0.4431,0.0035,140.002,45.000,31633.44331,1.94154,392.815,34.969,45.068,45.000,0.00,0.09,-272.75,-272.80,-7,511,-951,19.1,15.4,-7.8,19.3,15.7,-7.4,5.73,1.89,-4.1,26.0
2015-09-24 00:21:00,0.0,1.93302,0.00034,390.714,0.025,0.4399,0.0040,139.998,45.000,31633.43533,1.94148,392.808,34.956,45.068,45.000,0.00,0.09,-272.75,-272.79,-7,511,-951,19.2,15.3,-7.8,19.3,15.6,-7.5,5.73,2.00,-4.1,26.0
2015-09-24 00:22:00,0.0,1.93346,0.00033,390.711,0.030,0.4436,0.0038,140.001,45.000,31635.22443,1.94199,392.824,34.943,45.068,45.000,0.00,0.09,-272.75,-272.80,-7,512,-951,19.1,15.4,-7.8,19.3,15.7,-7.4,5.73,2.12,-4.1,26.0
2015-09-24 00:23:00,0.0,1.93372,0.00033,390.737,0.034,0.4461,0.0033,139.999,45.000,31633.86243,1.94233,392.861,34.941,45.068,45.000,0.00,0.09,-272.75,-272.81,-7,512,-951,19.1,15.5,-7.7,19.3,15.7,-7.4,5.73,2.11,-4.1,26.0
2015-09-24 00:24:00,0.0,1.93371,0.00038,390.727,0.038,0.4406,0.0030,140.001,45.000,31633.34642,1.94221,392.824,34.939,45.068,45.000,0.00,0.09,-272.74,-272.80,-7,512,-951,19.1,15.3,-7.8,19.3,15.6,-7.4,5.73,2.01,-4.1,26.0
2015-09-24 00:25:00,0.0,1.93346,0.00032,390.687,0.035,0.4446,0.0022,139.999,45.000,31635.32844,1.94202,392.804,34.938,45.068,45.000,0.00,0.09,-272.74,-272.80,-7,512,-951,19.1,15.5,-7.7,19.3,15.7,-7.4,5.73,1.91,-4.1,26.0
2015-09-24 00:26:00,0.0,1.93382,0.00039,390.721,0.032,0.4444,0.0023,139.999,45.000,31634.95239,1.94236,392.837,34.938,45.068,45.000,0.00,0.09,-272.74,-272.81,-7,512,-951,19.1,15.5,-7.7,19.3,15.7,-7.4,5.73,1.89,-4.1,26.0
2015-09-24 00:27:00,0.0,1.93361,0.00043,390.706,0.026,0.4448,0.0037,140.002,45.000,31637.07606,1.94220,392.823,34.938,45.068,45.000,0.00,0.09,-272.75,-272.80,-7,512,-951,19.1,15.4,-7.7,19.3,15.7,-7.3,5.73,1.98,-4.1,26.0
2015-09-24 00:28:00,0.0,1.93373,0.00035,390.696,0.040,0.4435,0.0036,140.002,45.000,31638.68459,1.94228,392.805,34.938,45.068,45.000,0.00,0.09,-272.74,-272.80,-7,512,-951,19.1,15.4,-7.8,19.3,15.7,-7.4,5.73,2.10,-4.1,26.0
2015-09-24 00:29:00,0.0,1.93387,0.00039,390.704,0.025,0.4410,0.0047,140.002,45.000,31637.18890,1.94239,392.805,34.938,45.068,45.000,0.00,0.09,-272.75,-272.81,-7,511,-951,19.1,15.3,-7.8,19.3,15.7,-7.4,5.73,2.12,-4.1,26.0
2015-09-24 00:30:00,0.0,1.93382,0.00039,390.693,0.028,0.4398,0.0029,140.000,45.000,31637.53873,1.94228,392.785,34.958,45.068,45.000,0.00,0.09,-272.74,-272.81,-7,512,-951,19.1,15.3,-7.9,19.3,15.5,-7.5,5.73,2.03,-4.1,26.0
2015-09-24 00:31:00,0.0,1.93426,0.00039,390.711,0.033,0.4469,0.0052,139.998,45.000,31635.25739,1.94286,392.838,34.970,45.068,45.000,0.00,0.09,-272.73,-272.81,-7,512,-951,19.1,15.5,-7.7,19.3,15.7,-7.3,5.73,1.93,-4.1,26.0
2015-09-24 00:32:00,0.0,1.93464,0.00044,390.734,0.034,0.4411,0.0031,140.002,45.000,31633.96773,1.94314,392.834,34.977,45.068,45.000,0.00,0.09,-272.74,-272.81,-7,512,-951,19.1,15.4,-7.8,19.3,15.6,-7.4,5.73,1.89,-4.1,26.0
2015-09-24 00:33:00,0.0,1.93440,0.00034,390.712,0.028,0.4374,0.0032,139.999,45.000,31635.38740,1.94285,392.794,34.967,45.068,45.000,0.00,0.09,-272.75,-272.80,-7,512,-952,19.1,15.2,-7.9,19.3,15.5,-7.5,5.73,1.96,-4.1,26.0
2015-09-24 00:34:00,0.0,1.93477,0.00048,390.730,0.042,0.4449,0.0053,139.999,45.000,31634.48426,1.94332,392.846,34.963,45.068,45.000,0.00,0.09,-272.75,-272.80,-7,512,-952,19.1,15.4,-7.7,19.4,15.6,-7.4,5.73,2.08,-4.1,26.0
2015-09-24 00:35:00,0.0,1.93444,0.00058,390.684,0.038,0.4433,0.0048,140.003,45.000,31638.52034,1.94303,392.795,34.968,45.068,45.000,0.00,0.09,-272.75,-272.80,-7,512,-952,19.1,15.4,-7.8,19.3,15.7,-7.3,5.73,2.13,-4.1,26.0
2015-09-24 00:36:00,0.0,1.93422,0.00036,390.695,0.033,0.4375,0.0032,140.000,45.000,31638.92830,1.94263,392.777,34.996,45.068,45.000,0.00,0.09,-272.75,-272.80,-7,512,-952,19.1,15.2,-7.9,19.3,15.5,-7.6,5.73,2.06,-4.1,26.0
2015-09-24 00:37:00,0.0,1.93457,0.00043,390.724,0.035,0.4462,0.0046,140.000,45.000,31639.29385,1.94317,392.849,34.987,45.068,45.000,0.00,0.09,-272.74,-272.81,-7,512,-952,19.1,15.5,-7.7,19.4,15.7,-7.3,5.73,1.95,-4.1,26.0
2015-09-24 00:38:00,0.0,1.93450,0.00024,390.700,0.032,0.4452,0.0041,140.001,45.000,31639.81158,1.94310,392.818,34.967,45.068,45.000,0.00,0.09,-272.74,-272.80,-6,512,-952,19.1,15.5,-7.7,19.4,15.8,-7.3,5.73,1.89,-4.1,26.0
2015-09-24 00:39:00,0.0,1.93445,0.00034,390.714,0.044,0.4444,0.0030,139.996,45.000,31637.84169,1.94300,392.829,34.990,45.068,45.000,0.00,0.09,-272.76,-272.81,-7,512,-952,19.1,15.5,-7.7,19.4,15.7,-7.4,5.73,1.93,-4.1,26.0
2015-09-24 00:40:00,0.0,1.93484,0.00038,390.725,0.034,0.4459,0.0021,140.000,45.000,31637.30917,1.94341,392.848,34.999,45.068,45.000,0.00,0.09,-272.75,-272.80,-7,512,-952,19.1,15.5,-7.7,19.4,15.8,-7.3,5.73,2.05,-4.1,26.0
2015-09-24 00:41:00,0.0,1.93503,0.00049,390.738,0.035,0.4475,0.0045,139.999,45.000,31638.34699,1.94367,392.868,34.999,45.068,45.000,0.00,0.09,-272.75,-272.80,-7,511,-952,19.1,15.6,-7.6,19.3,15.8,-7.3,5.73,2.13,-4.1,26.0
2015-09-24 00:42:00,0.0,1.93465,0.00030,390.734,0.034,0.4428,0.0029,140.000,45.000,31639.80240,1.94324,392.843,34.998,45.068,45.000,0.00,0.09,-272.74,-272.80,-7,512,-952,19.1,15.4,-7.8,19.4,15.7,-7.3,5.73,2.09,-4.1,26.0
2015-09-24 00:43:00,0.0,1.93467,0.00048,390.749,0.033,0.4425,0.0035,140.000,45.000,31638.83300,1.94319,392.854,34.999,45.068,45.000,0.00,0.09,-272.76,-272.87,-7,512,-952,19.1,15.4,-7.8,19.4,15.6,-7.4,5.73,1.97,-4.1,26.0
2015-09-24 00:44:00,0.0,1.93438,0.00041,390.716,0.028,0.4430,0.0039,139.997,45.000,31636.22787,1.94294,392.828,34.999,45.068,45.000,0.00,0.09,-272.74,-272.83,-7,512,-952,19.1,15.4,-7.8,19.4,15.7,-7.4,5.73,1.88,-4.1,26.0
2015-09-24 00:45:00,0.0,1.93458,0.00042,390.724,0.033,0.4332,0.0019,139.996,45.000,31635.60802,1.94291,392.784,35.000,45.068,45.000,0.00,0.10,-272.73,-272.79,-7,512,-952,19.1,15.1,-8.1,19.4,15.4,-7.6,5.73,1.92,-4.1,26.0
2015-09-24 00:46:00,0.0,1.93447,0.00033,390.740,0.034,0.4407,0.0027,140.000,45.000,31639.76199,1.94298,392.837,35.000,45.068,45.000,0.00,0.09,-272.74,-272.82,-7,512,-952,19.2,15.3,-7.9,19.4,15.5,-7.5,5.73,2.04,-4.1,26.0
2015-09-24 00:47:00,0.0,1.93449,0.00048,390.745,0.038,0.4397,0.0034,139.999,45.000,31638.79729,1.94301,392.839,35.000,45.068,45.000,0.00,0.09,-272.75,-272.78,-7,512,-952,19.1,15.3,-7.9,19.4,15.5,-7.5,5.73,2.13,-4.1,26.0
2015-09-24 00:48:00,0.0,1.93388,0.00039,390.765,0.030,0.4355,0.0051,139.999,45.000,31639.62608,1.94225,392.837,35.000,45.068,45.000,0.00,0.09,-272.76,-272.79,-6,512,-952,19.2,15.1,-8.0,19.4,15.4,-7.6,5.73,2.10,-4.1,26.0
2015-09-24 00:49:00,0.0,1.93390,0.00038,390.782,0.035,0.4305,0.0035,140.003,45.000,31641.06286,1.94222,392.832,35.000,45.068,45.000,0.00,0.09,-272.74,-272.79,-7,512,-952,19.2,15.0,-8.1,19.4,15.3,-7.7,5.73,1.97,-4.1,26.0
2015-09-24 00:50:00,0.0,1.93438,0.00045,390.781,0.029,0.4439,0.0043,139.999,45.000,31640.22542,1.94291,392.893,34.992,45.068,45.000,0.00,0.09,-272.74,-272.81,-7,512,-952,19.1,15.4,-7.8,19.4,15.5,-7.5,5.73,1.89,-4.1,26.0
2015-09-24 00:51:00,0.0,1.93424,0.00047,390.773,0.036,0.4470,0.0032,140.001,45.000,31642.74886,1.94285,392.900,34.996,45.068,45.000,0.00,0.09,-272.74,-272.80,-7,512,-952,19.1,15.6,-7.7,19.4,15.8,-7.3,5.73,1.92,-4.1,26.0
2015-09-24 00:52:00,0.0,1.93434,0.00037,390.788,0.039,0.4477,0.0025,140.001,45.000,31643.61240,1.94301,392.922,34.998,45.068,45.000,0.00,0.09,-272.74,-272.80,-7,512,-952,19.2,15.5,-7.6,19.4,15.8,-7.2,5.73,2.04,-4.1,26.0
2015-09-24 00:53:00,0.0,1.93412,0.00036,390.799,0.037,0.4400,0.0054,139.999,45.000,31643.44000,1.94261,392.893,35.000,45.068,45.000,0.00,0.09,-272.75,-272.81,-7,512,-952,19.1,15.3,-7.9,19.4,15.6,-7.4,5.73,2.13,-4.1,26.0
2015-09-24 00:54:00,0.0,1.93426,0.00034,390.803,0.028,0.4378,0.0036,140.000,45.000,31643.79657,1.94268,392.887,35.001,45.068,45.000,0.00,0.09,-272.74,-272.80,-7,512,-952,19.2,15.2,-7.9,19.4,15.5,-7.5,5.73,2.10,-4.1,26.0
2015-09-24 00:55:00,0.0,1.93423,0.00042,390.785,0.024,0.4441,0.0031,140.001,45.000,31643.58679,1.94281,392.902,35.001,45.068,45.000,0.00,0.09,-272.73,-272.80,-7,512,-952,19.2,15.4,-7.8,19.4,15.6,-7.4,5.73,1.97,-4.1,26.0
2015-09-24 00:56:00,0.0,1.93444,0.00036,390.812,0.031,0.4455,0.0044,140.001,45.000,31643.65317,1.94302,392.932,35.001,45.068,45.000,0.00,0.09,-272.74,-272.81,-7,512,-952,19.2,15.4,-7.7,19.4,15.7,-7.3,5.73,1.89,-4.1,26.0
2015-09-24 00:57:00,0.0,1.93373,0.00056,390.819,0.030,0.4398,0.0069,140.000,45.000,31645.49358,1.94222,392.914,35.001,45.068,45.000,0.00,0.09,-272.75,-272.81,-7,512,-952,19.2,15.2,-7.9,19.4,15.6,-7.4,5.73,1.92,-4.1,26.0
2015-09-24 00:58:00,0.0,1.93403,0.00034,390.840,0.034,0.4367,0.0033,139.999,45.000,31644.29556,1.94245,392.918,34.999,45.068,45.000,0.00,0.09,-272.74,-272.80,-7,512,-952,19.2,15.0,-8.0,19.4,15.4,-7.6,5.73,2.04,-4.1,26.1
2015-09-24 00:59:00,0.0,1.93385,0.00048,390.846,0.029,0.4296,0.0019,140.002,45.000,31643.33045,1.94213,392.891,34.986,45.068,45.000,0.00,0.09,-272.74,-272.81,-7,512,-952,19.2,14.8,-8.2,19.4,15.2,-7.7,5.73,2.13,-4.1,26.1
2015-09-24 01:00:00,0.0,1.93366,0.00037,390.847,0.032,0.4322,0.0029,140.000,45.000,31645.05959,1.94200,392.906,34.993,45.068,45.000,0.00,0.09,-272.75,-272.81,-7,512,-952,19.2,14.9,-8.1,19.4,15.2,-7.7,5.73,2.09,-4.1,26.1
2015-09-24 01:01:00,0.0,1.93389,0.00029,390.836,0.030,0.4346,0.0040,140.000,45.000,31645.51385,1.94225,392.904,34.997,45.068,45.000,0.00,0.09,-272.73,-272.80,-7,512,-952,19.2,15.0,-8.0,19.5,15.2,-7.7,5.73,1.95,-4.1,26.1
2015-09-24 01:02:00,0.0,1.93337,0.00041,390.808,0.037,0.4403,0.0062,139.998,45.000,31646.24369,1.94188,392.903,35.000,45.068,45.000,0.00,0.09,-272.75,-272.81,-7,512,-952,19.2,15.2,-7.9,19.5,15.4,-7.5,5.73,1.88,-4.0,26.1
2015-09-24 01:03:00,0.0,1.93365,0.00037,390.857,0.043,0.4336,0.0033,140.000,45.000,31645.24167,1.94201,392.923,35.011,45.068,45.000,0.00,0.09,-272.75,-272.80,-7,512,-952,19.3,15.0,-8.0,19.5,15.4,-7.5,5.73,1.94,-4.1,26.1
2015-09-24 01:04:00,0.0,1.93393,0.00035,390.840,0.028,0.4373,0.0034,139.999,45.000,31644.28214,1.94233,392.920,35.014,45.068,45.000,0.00,0.09,-272.75,-272.80,-7,512,-952,19.3,15.1,-8.0,19.5,15.3,-7.6,5.73,2.08,-4.0,26.1
2015-09-24 01:05:00,0.0,1.93381,0.00042,390.871,0.029,0.4289,0.0051,140.000,45.000,31645.12034,1.94208,392.914,35.031,45.068,45.000,0.00,0.09,-272.75,-272.80,-7,512,-952,19.3,14.8,-8.2,19.5,15.2,-7.7,5.73,2.14,-4.0,26.1
2015-09-24 01:06:00,0.0,1.93359,0.00037,390.883,0.038,0.4293,0.0023,140.002,45.000,31646.46594,1.94188,392.924,35.059,45.068,45.000,0.00,0.09,-272.75,-272.81,-7,512,-952,19.3,14.8,-8.2,19.5,15.0,-7.8,5.73,2.05,-4.0,26.1
2015-09-24 01:07:00,0.0,1.93362,0.00035,390.892,0.033,0.4317,0.0035,140.002,45.000,31647.80174,1.94192,392.947,35.063,45.068,45.000,0.00,0.09,-272.74,-272.81,-7,512,-952,19.3,14.8,-8.2,19.5,15.1,-7.8,5.73,1.90,-4.1,26.1
2015-09-24 01:08:00,0.0,1.93356,0.00049,390.894,0.027,0.4336,0.0042,139.997,45.000,31647.49149,1.94195,392.959,35.063,45.068,45.000,0.00,0.09,-272.74,-272.80,-7,512,-952,19.3,14.9,-8.1,19.5,15.2,-7.7,5.73,1.88,-4.1,26.1
2015-09-24 01:09:00,0.0,1.93379,0.00042,390.887,0.039,0.4285,0.0019,140.001,45.000,31648.69233,1.94201,392.926,35.063,45.068,45.000,0.00,0.09,-272.74,-272.80,-7,512,-952,19.3,14.8,-8.2,19.5,15.1,-7.8,5.73,1.99,-4.1,26.1
2015-09-24 01:10:00,0.0,1.93419,0.00044,390.895,0.032,0.4307,0.0023,140.002,45.000,31648.85738,1.94246,392.945,35.063,45.068,45.000,0.00,0.09,-272.75,-272.81,-7,512,-952,19.3,14.8,-8.1,19.5,15.1,-7.8,5.73,2.12,-4.0,26.1
2015-09-24 01:11:00,0.0,1.93416,0.00043,390.906,0.030,0.4321,0.0027,140.001,45.000,31649.64010,1.94251,392.964,35.063,45.068,45.000,0.00,0.09,-272.75,-272.80,-7,512,-952,19.3,14.9,-8.1,19.5,15.1,-7.7,5.73,2.12,-4.1,26.1
2015-09-24 01:12:00,0.0,1.93421,0.00038,390.889,0.029,0.4329,0.0041,140.000,45.000,31648.90719,1.94257,392.950,35.063,45.068,45.000,0.00,0.09,-272.74,-272.81,-7,512,-952,19.3,14.8,-8.1,19.5,15.1,-7.7,5.73,1.99,-4.1,26.1
2015-09-24 01:13:00,0.0,1.93413,0.00049,390.907,0.032,0.4331,0.0034,140.000,45.000,31649.49352,1.94246,392.969,35.066,45.068,45.000,0.00,0.09,-272.74,-272.81,-7,512,-952,19.3,14.9,-8.1,19.5,15.1,-7.7,5.73,1.87,-4.1,26.1
2015-09-24 01:14:00,0.0,1.93530,0.00063,390.924,0.033,0.4366,0.0026,140.002,45.000,31649.53471,1.94367,393.002,35.075,45.068,45.000,0.00,0.09,-272.75,-272.80,-7,512,-952,19.3,15.0,-8.0,19.5,15.2,-7.6,5.73,1.92,-4.0,26.1
2015-09-24 01:15:00,0.0,1.93557,0.00067,390.934,0.032,0.4359,0.0031,140.000,45.000,31650.04789,1.94399,393.010,35.095,45.068,45.000,0.00,0.09,-272.74,-272.80,-7,512,-952,19.3,15.0,-8.0,19.5,15.3,-7.6,5.73,2.06,-4.0,26.1
2015-09-24 01:16:00,0.0,1.93494,0.00039,390.954,0.030,0.4327,0.0033,139.999,45.000,31650.60923,1.94328,393.014,35.107,45.068,45.000,0.00,0.09,-272.75,-272.80,-7,512,-952,19.3,14.9,-8.1,19.5,15.1,-7.7,5.73,2.14,-4.0,26.2
2015-09-24 01:17:00,0.0,1.93551,0.00063,390.955,0.057,0.4395,0.0067,139.998,45.000,31649.60537,1.94400,393.047,35.103,45.068,45.000,0.00,0.09,-272.75,-272.81,-7,513,-952,19.3,15.1,-7.9,19.5,15.3,-7.5,5.73,2.06,-4.0,26.2
2015-09-24 01:18:00,0.0,1.93546,0.00043,391.041,0.030,0.4320,0.0020,140.001,45.000,31648.98793,1.94380,393.098,35.100,45.068,45.000,0.00,0.09,-272.75,-272.80,-7,513,-952,19.4,14.8,-8.1,19.5,15.1,-7.7,5.73,1.92,-4.0,26.2
2015-09-24 01:19:00,0.0,1.93535,0.00066,390.997,0.036,0.4395,0.0041,139.999,45.001,31651.04610,1.94379,393.091,35.096,45.068,45.000,0.00,0.09,-272.74,-272.81,-7,512,-952,19.3,15.1,-7.9,19.5,15.2,-7.6,5.73,1.87,-4.0,26.2
2015-09-24 01:20:00,0.0,1.93611,0.00049,391.020,0.034,0.4443,0.0041,140.001,45.000,31651.18141,1.94466,393.136,35.090,45.068,45.000,0.00,0.09,-272.75,-272.81,-7,513,-952,19.3,15.3,-7.7,19.5,15.5,-7.4,5.73,1.98,-4.0,26.2
2015-09-24 01:21:00,0.0,1.93637,0.00055,391.034,0.031,0.4407,0.0027,140.002,45.000,31652.24247,1.94487,393.135,35.109,45.068,45.000,0.00,0.09,-272.74,-272.80,-7,513,-952,19.3,15.1,-7.9,19.5,15.4,-7.5,5.73,2.11,-4.0,26.2
2015-09-24 01:22:00,0.0,1.93648,0.00047,391.154,0.070,0.4352,0.0042,140.003,45.000,31652.28805,1.94487,393.225,35.108,45.068,45.000,0.00,0.09,-272.74,-272.80,-6,513,-952,19.4,14.9,-8.0,19.5,15.3,-7.6,5.73,2.12,-4.0,26.2
2015-09-24 01:23:00,0.0,1.93670,0.00048,391.133,0.025,0.4340,0.0052,140.001,45.000,31650.48924,1.94512,393.203,35.113,45.068,45.000,0.00,0.09,-272.74,-272.81,-7,513,-952,19.4,14.9,-8.1,19.5,15.1,-7.7,5.73,1.99,-4.0,26.2
2015-09-24 01:24:00,0.0,1.93747,0.00076,391.092,0.047,0.4346,0.0036,139.997,45.000,31649.66277,1.94582,393.160,35.120,45.068,45.000,0.00,0.09,-272.74,-272.80,-7,513,-952,19.3,14.9,-8.0,19.6,15.1,-7.7,5.73,1.87,-4.0,26.2
2015-09-24 01:25:00,0.0,1.93676,0.00040,391.144,0.030,0.4361,0.0041,140.002,45.000,31653.10649,1.94522,393.223,35.124,45.068,45.000,0.00,0.09,-272.74,-272.80,-7,513,-952,19.4,14.9,-8.0,19.6,15.2,-7.6,5.73,1.92,-4.0,26.2
2015-09-24 01:26:00,0.0,1.93664,0.00030,391.151,0.031,0.4341,0.0019,140.003,45.000,31652.58123,1.94501,393.219,35.124,45.068,45.000,0.00,0.09,-272.75,-272.81,-7,513,-952,19.4,14.9,-8.0,19.6,15.1,-7.6,5.73,2.07,-4.0,26.2
2015-09-24 01:27:00,0.0,1.93708,0.00048,391.190,0.035,0.4351,0.0016,140.001,45.000,31651.02836,1.94543,393.262,35.125,45.068,45.000,0.00,0.09,-272.75,-272.81,-7,513,-952,19.4,14.9,-8.0,19.6,15.1,-7.6,5.73,2.14,-4.0,26.2
2015-09-24 01:28:00,0.0,1.93746,0.00043,391.140,0.034,0.4382,0.0023,140.002,45.000,31651.97017,1.94592,393.228,35.124,45.068,45.000,0.00,0.09,-272.74,-272.81,-7,513,-952,19.4,15.0,-7.9,19.6,15.2,-7.6,5.73,2.05,-4.0,26.2
2015-09-24 01:29:00,0.0,1.93791,0.00044,391.151,0.036,0.4415,0.0038,140.002,45.000,31652.49820,1.94643,393.255,35.124,45.068,45.000,0.00,0.09,-272.74,-272.80,-7,513,-952,19.4,15.1,-7.8,19.6,15.3,-7.5,5.73,1.90,-4.0,26.2
2015-09-24 01:30:00,0.0,1.93772,0.00035,391.150,0.030,0.4403,0.0021,139.998,45.000,31650.47216,1.94627,393.248,35.126,45.068,45.000,0.00,0.09,-272.75,-272.81,-7,513,-952,19.4,15.1,-7.9,19.6,15.3,-7.5,5.73,1.88,-4.0,26.2
2015-09-24 01:31:00,0.0,1.93777,0.00061,391.143,0.035,0.4460,0.0030,139.998,45.000,31651.92337,1.94636,393.268,35.125,45.068,45.000,0.00,0.09,-272.75,-272.80,-7,513,-952,19.4,15.3,-7.7,19.6,15.5,-7.3,5.73,2.01,-4.0,26.2
2015-09-24 01:32:00,0.0,1.93790,0.00052,391.185,0.032,0.4420,0.0022,140.001,45.000,31651.22367,1.94645,393.292,35.125,45.068,45.000,0.00,0.09,-272.74,-272.79,-7,513,-952,19.4,15.1,-7.8,19.6,15.4,-7.4,5.73,2.14,-4.0,26.2
2015-09-24 01:33:00,0.0,1.93819,0.00067,391.178,0.029,0.4457,0.0022,140.001,45.000,31651.18260,1.94681,393.303,35.125,45.068,45.000,0.00,0.09,-272.75,-272.81,-7,513,-952,19.4,15.3,-7.7,19.6,15.5,-7.4,5.73,2.10,-4.0,26.2
2015-09-24 01:34:00,0.0,1.93780,0.00044,391.193,0.026,0.4427,0.0024,140.002,45.000,31651.17785,1.94631,393.303,35.125,45.068,45.000,0.00,0.09,-272.74,-272.81,-7,513,-952,19.4,15.2,-7.8,19.6,15.4,-7.4,5.73,1.94,-4.0,26.2
2015-09-24 01:35:00,0.0,1.93766,0.00057,391.163,0.045,0.4439,0.0037,140.000,45.000,31650.34975,1.94627,393.279,35.125,45.068,45.000,0.00,0.09,-272.73,-272.80,-7,513,-952,19.4,15.2,-7.8,19.6,15.5,-7.4,5.73,1.87,-4.0,26.2
2015-09-24 01:36:00,0.0,1.93785,0.00038,391.159,0.035,0.4447,0.0030,140.003,45.000,31650.74780,1.94643,393.279,35.124,45.068,45.000,0.00,0.09,-272.74,-272.81,-7,513,-952,19.4,15.2,-7.7,19.6,15.5,-7.4,5.73,1.97,-4.0,26.2
2015-09-24 01:37:00,0.0,1.93775,0.00037,391.126,0.033,0.4515,0.0024,139.999,45.000,31651.46039,1.94646,393.280,35.122,45.068,45.000,0.00,0.09,-272.75,-272.81,-6,513,-952,19.4,15.5,-7.5,19.6,15.7,-7.2,5.73,2.11,-3.9,26.2
2015-09-24 01:38:00,0.0,1.93829,0.00046,391.136,0.045,0.4450,0.0025,139.999,45.000,31651.35237,1.94690,393.257,35.113,45.068,45.000,0.00,0.09,-272.74,-272.80,-6,513,-952,19.4,15.2,-7.7,19.6,15.6,-7.3,5.73,2.13,-3.9,26.2
2015-09-24 01:39:00,0.0,1.93832,0.00110,391.117,0.066,0.4396,0.0025,140.000,45.000,31652.09319,1.94686,393.212,35.124,45.068,45.000,0.00,0.09,-272.74,-272.80,-7,513,-952,19.4,15.1,-7.9,19.6,15.4,-7.4,5.73,1.99,-3.9,26.2
2015-09-24 01:40:00,0.0,1.93806,0.00077,391.097,0.052,0.4407,0.0032,139.999,45.000,31652.97888,1.94657,393.198,35.109,45.068,45.000,0.00,0.09,-272.74,-272.81,-7,513,-952,19.4,15.1,-7.9,19.6,15.3,-7.5,5.73,1.87,-3.9,26.2
2015-09-24 01:41:00,0.0,1.93726,0.00041,391.069,0.028,0.4413,0.0013,139.998,45.000,31653.23009,1.94578,393.170,35.113,45.068,45.000,0.00,0.09,-272.74,-272.80,-7,513,-952,19.4,15.1,-7.8,19.6,15.3,-7.5,5.73,1.92,-3.9,26.2
2015-09-24 01:42:00,0.0,1.93720,0.00043,391.063,0.032,0.4427,0.0022,140.001,45.000,31653.65047,1.94572,393.171,35.108,45.068,45.000,0.00,0.09,-272.74,-272.80,-7,513,-952,19.4,15.1,-7.8,19.6,15.4,-7.4,5.73,2.07,-3.3,26.2
2015-09-24 01:43:00,0.0,1.93760,0.00041,391.083,0.034,0.4439,0.0014,139.997,45.000,31650.91424,1.94617,393.199,35.119,45.068,45.000,0.00,0.09,-272.75,-272.80,-7,513,-952,19.4,15.2,-7.8,19.6,15.4,-7.4,5.73,2.14,-3.0,26.2
2015-09-24 01:44:00,0.0,1.93767,0.00037,391.131,0.031,0.4449,0.0025,140.002,45.000,31652.85623,1.94626,393.250,35.120,45.068,45.000,0.00,0.09,-272.75,-272.81,-7,513,-952,19.4,15.2,-7.7,19.6,15.5,-7.4,5.73,2.05,-3.1,26.2
2015-09-24 01:45:00,0.0,1.93841,0.00067,391.146,0.044,0.4515,0.0031,140.000,45.000,31651.84491,1.94712,393.298,35.117,45.068,45.000,0.00,0.09,-272.74,-272.80,-7,513,-952,19.4,15.5,-7.5,19.6,15.7,-7.2,5.73,1.89,-3.2,26.2